Location: Unspecified
(0.0000°N, 0.0000°E)
Time: 03:55:23
(UTC+02:00)

Tiros 1 despin weight - Visible Passes

Search period start: 20 September 2014 00:00
Search period end: 30 September 2014 00:00
Orbit: 601 x 652 km, 48.2° (Epoch: 19 September)

Date Brightness Start Highest point End Pass type
(mag) Time Alt. Az. Time Alt. Az. Time Alt. Az.
21 Sep ? 06:14:23 10° NNE 06:16:43 14° NE 06:19:03 10° E visible
22 Sep ? 06:31:45 10° NNW 06:36:04 37° NE 06:40:25 10° ESE visible
23 Sep ? 06:51:24 14° NW 06:55:22 76° SW 07:00:06 10° SE visible
24 Sep ? 05:33:59 23° ENE 05:33:59 23° ENE 05:36:53 10° ESE visible
24 Sep ? 07:11:19 13° WNW 07:14:41 26° SW 07:18:38 10° S visible
25 Sep ? 05:53:46 44° ESE 05:53:46 44° ESE 05:57:04 10° SE visible
26 Sep ? 06:13:22 29° S 06:13:22 29° S 06:16:05 10° SSE visible
27 Sep ? 06:32:47 12° SSW 06:32:47 12° SSW 06:33:40 10° SSW visible
